Theta_e
312 312 313 313 308 303 302 300 296 294 294 296 298 300 301 298 298 299 299 296 292 290
311 311 311 310 312 308 305 302 298 294 292 292 294 296 297 296 294 296 294 292 291 289
309 310 311 310 309 308 307 300 296 292 289 289 291 291 292 291 289 292 290 289 288 287
307 308 308 307 305 303 300 295 292 290 287 287 288 288 289 288 288 288 287 287 286 285
306 305 304 304 302 299 296 292 291 289 288 287 286 286 287 286 286 286 285 285 284 283
303 303 302 302 300 297 293 290 290 288 287 285 284 285 286 285 285 285 285 284 283 281
302 301 301 301 298 294 291 289 287 286 285 284 284 284 284 284 284 284 284 283 283 281
301 301 300 298 296 292 290 288 286 285 284 283 283 283 283 283 283 283 282 282 282 282
298 296 295 293 290 288 287 285 284 283 283 282 282 287 287 284 282 282 281 280 281 281
293 292 292 290 287 286 285 284 283 282 282 282 282 287 287 286 282 281 281 280 280 280
291 290 289 287 286 285 284 283 282 282 282 282 282 287 287 285 282 281 281 281 280 281
290 288 287 285 285 284 284 283 282 283 282 282 281 287 287 283 282 281 281 281 281 283
288 287 286 286 285 285 284 283 282 281 282 282 281 287 286 283 282 280 280 281 280 282
287 286 286 285 285 284 283 281 280 280 281 281 283 285 286 284 282 281 281 280 279 280
Wind_Speed
15 10 11 12 10 9 9 9 11 11 11 10 10 9 9 8 6 9 8 9 6 5
13 15 12 13 11 10 11 9 12 12 11 10 10 10 10 8 8 8 7 8 7 6
14 14 12 12 12 11 10 9 11 12 12 11 11 9 9 6 7 10 7 7 9 7
12 13 12 12 12 11 10 11 12 13 12 12 12 11 10 10 11 12 10 10 10 9
12 12 13 12 12 12 11 10 11 11 12 12 11 12 11 12 11 13 13 12 12 11
13 14 15 14 13 12 11 10 10 11 12 12 12 12 10 13 13 12 13 13 14 13
14 15 14 13 13 12 12 12 12 13 13 13 12 12 10 11 11 11 11 11 13 13
11 13 13 13 12 11 12 12 12 12 12 12 12 11 13 13 12 12 12 10 10 11
11 11 10 9 10 11 10 10 11 12 13 14 10 19 21 16 13 12 13 13 10 9
8 10 9 9 10 11 11 10 11 11 12 13 12 23 23 20 12 13 12 13 12 9
8 9 9 10 11 11 10 12 12 12 12 11 10 23 22 18 11 10 10 12 13 11
9 9 10 11 11 9 9 9 10 10 11 12 10 25 24 19 11 10 10 10 10 10
7 8 9 9 9 7 7 8 6 7 8 8 8 22 24 16 9 9 8 7 7 11
5 6 6 7 6 8 7 7 7 8 7 9 10 16 23 19 10 9 9 8 7 6
Wind_Direction
220 222 218 207 192 198 193 187 170 185 186 185 180 175 167 173 183 188 182 168 151 139
216 219 214 215 209 194 190 183 176 180 180 178 177 176 168 170 177 177 171 150 142 138
216 215 212 211 206 199 192 162 166 174 178 172 172 162 162 159 158 162 156 146 141 134
219 215 211 213 201 197 182 170 177 179 174 174 171 168 162 164 165 158 151 145 143 133
212 212 217 212 202 189 179 171 178 177 178 176 173 171 168 162 168 158 155 151 141 139
209 213 210 208 202 185 168 167 176 178 179 176 176 170 172 167 168 161 158 157 149 148
211 212 207 204 199 182 170 169 177 184 179 177 172 170 166 162 163 157 154 154 148 152
218 215 206 200 195 180 178 177 179 178 179 173 173 172 167 164 164 154 147 146 150 154
213 207 205 191 182 177 176 172 172 180 176 178 181 178 174 164 162 157 153 150 150 147
197 192 189 174 178 184 181 169 180 181 181 185 181 178 177 166 160 157 158 155 153 149
189 186 181 179 185 183 179 178 179 184 186 182 183 179 172 161 152 153 155 157 160 156
193 186 184 187 187 181 174 178 180 178 179 181 176 179 171 159 153 152 155 153 154 151
184 183 189 184 181 173 178 173 162 161 170 167 160 176 170 156 157 151 149 151 157 169
166 173 171 164 159 155 151 140 140 138 143 144 158 166 171 172 157 163 163 171 176 188